Погода во Льгове

Россия / Курская область     51°39′24″N   35°15′33″E
В апреле 2022 года жителям России запретили посещать сайт meteo.paraplan.net по решению Генеральной прокуратуры. Аудитория сайта уменьшилась в 10 раз. Владельцы сайта не видят смысла в поддержке погодного сервера в таких условиях. Сайт будет закрыт в октябре.
темп.,
°C
ветер,
м/с
пор.,
м/с
влажн.,
%
обл.,
%
осадки,
мм/ч
давл.,
гПа
погр.,
м
4 октября, вт
вт400:00+9ю91583100 0.0 1003991
03:00+10ю91676100 0.0 10031066
06:00+7юз71391100 1.4 1006923
09:00+7ююз61086100 2.3 1008922
12:00+9ююз81281100 0.2 10081251
15:00+8ююз51186100 0.6 10101144
18:00+7юз61086100 0.7 10111011
21:00+7ююз61092100 1.0 1012797
5 октября, ср
ср500:00+8юз61194100 0.7 1013639
03:00+8зюз5992100 1.1 1014564
06:00+7зюз5993100 0.3 1015552
09:00+7з4990100 1.3 1017988
12:00+9зсз588299 0.6 1018842
15:00+10з797689 1.2 10201178
18:00+8з51084100 0.1 1021396
21:00+8з41093100 0.2 1022380
6 октября, чт
чт600:00+9зюз4994100 0.1 1022425
03:00+8зюз4995100 0.1 1023254
06:00+8юз4994100 0.0 1022265
09:00+10зюз488947 0.0 1022317
12:00+14зюз567236 0.0 1022813
15:00+14зюз566993 0.0 1022713
18:00+12ююз36835 0.0 1022188
21:00+10юз37925 0.0 1022146
7 октября, пт
пт700:00+9зюз379317 0.0 1023142
03:00+9зюз369484 0.0 1022115
06:00+8зсз38965 0.0 1023167
09:00+11сз498912 0.0 1025362
12:00+15сз57620 0.0 1025702
15:00+16сз56560 0.0 1025891
18:00+12сз34760 0.0 102655
21:00+9ссз22851 0.0 102726
8 октября, сб
сб800:00+8ссв22903 0.0 102816
03:00+7вюв22920 0.0 102811
06:00+7ююв22930 0.0 102811
09:00+9ююв23840 0.0 1028168
12:00+14ююв33655 0.0 1026609
15:00+16ю345653 0.0 1024879
18:00+12ю227263 0.0 102311
21:00+10ююв3378100 0.0 102338